Terug naar catalogus

THORAD DELTA 1 DEB

ActiefSSO
NORAD 8136·DEBRIS·🇺🇸 United States

Gelanceerd Nov 15, 1974 vanaf Vandenberg Space Force Base

Loading…

Volgende Passages (komende 24 uur)

TLE

VersSource: Space-Track

Epoch: Sep 14, 2026, 09:50 UTC

1 08136U 74089E   26257.40985779 -.00000042  00000-0  28649-5 0  9998
2 08136 101.0745 245.1721 0073619 233.5054 287.1255 12.64810014117060

Volg THORAD DELTA 1 DEB in realtime met AllMySat

Download on the App Store